Papa, Hungary

10:58 AM CEST on July 23, 2017 (GMT +0200)
Papa

Weather History for LHPA - November, 2012

Change the Weather History Date:

Friday, November 9, 2012

  Actual Average Record
Temperature  
Mean Temperature 43 °F -  
Max Temperature 53 °F - - ()
Min Temperature 33 °F - - ()
Degree Days  
Heating Degree Days 22    
Moisture  
Dew Point 38 °F    
Average Humidity 86    
Maximum Humidity 100    
Minimum Humidity 54    
Precipitation  
Precipitation 0.00 in - - ()
Sea Level Pressure  
Sea Level Pressure 30.11 in    
Wind  
Wind Speed 4 mph ()    
Max Wind Speed 16 mph    
Max Gust Speed 27 mph    
Visibility 5.1 miles    
Events Rain    
T = Trace of Precipitation, MM = Missing Value Source: Averaged Metar Reports

Daily Weather History Graph

Daily Weather History Graph

Search for Another Location

Airport or City:

Trip Planner

Search our weather history database for the weather conditions in past years. The results will help you decide how hot, cold, wet, or windy it might be!

Date:

Astronomy

Nov. 09, 2012 Rise Set
Actual Time 6:45 AM CET 4:21 PM CET
Civil Twilight 6:12 AM CET 4:54 PM CET
Nautical Twilight 5:35 AM CET 5:31 PM CET
Astronomical Twilight 5:00 AM CET 6:06 PM CET
Moon 1:05 AM CET (11/9) 1:42 PM CET (11/9)
Length of Visible Light 10h 41m
Length of Day
9h 36m
Waning Crescent, 25% of the Moon is Illuminated
Nov 9
Waning Crescent
Nov 13
New
Nov 20
First Quarter
Nov 28
Full
Dec 6
Last Quarter

Hourly Weather History & Observations

Time (CET) Temp. Windchill Dew Point Humidity Pressure Visibility Wind Dir Wind Speed Gust Speed Precip Events Conditions
12:15 AM 37.4 °F - 35.6 °F 93% 30.04 in - Calm Calm - N/A   Clear
12:45 AM 37.4 °F - 35.6 °F 93% 30.04 in - Calm Calm - N/A   Clear
1:15 AM 33.8 °F 29.7 °F 33.8 °F 100% 30.06 in - NNW 4.5 mph - N/A   Clear
1:45 AM 35.6 °F - 35.6 °F 100% 30.04 in - NNE 2.2 mph - N/A   Clear
2:15 AM 35.6 °F - 35.6 °F 100% 30.06 in - Calm Calm - N/A   Clear
2:45 AM 35.6 °F - 33.8 °F 93% 30.06 in - Calm Calm - N/A   Clear
3:15 AM 35.6 °F - 35.6 °F 100% 30.04 in - SE 2.2 mph - N/A   Clear
3:45 AM 37.4 °F - 37.4 °F 100% 30.04 in - ESE 2.2 mph - N/A   Clear
4:15 AM 37.4 °F - 37.4 °F 100% 30.06 in - Calm Calm - N/A   Clear
4:45 AM 37.4 °F - 37.4 °F 100% 30.06 in - Calm Calm - N/A   Clear
5:15 AM 39.2 °F - 37.4 °F 93% 30.06 in - Calm Calm - N/A   Clear
5:45 AM - - - N/A% - 3.1 mi NNW 8.9 mph - N/A Rain Rain
6:15 AM 41.0 °F - 39.2 °F 93% 30.09 in - Calm Calm - N/A   Clear
6:45 AM 41.0 °F - 39.2 °F 93% 30.09 in - Calm Calm - N/A   Clear
7:15 AM 42.8 °F 40.2 °F 41.0 °F 93% 30.09 in - NNE 4.5 mph - N/A   Clear
7:45 AM 44.6 °F - 41.0 °F 87% 30.09 in - NE 2.2 mph - N/A   Clear
8:15 AM 44.6 °F - 42.8 °F 93% 30.12 in - SE 2.2 mph - N/A   Clear
8:45 AM - - - N/A% - 6.2 mi NNW 8.9 mph - N/A   Clear
9:15 AM 48.2 °F - 42.8 °F 82% 30.12 in - NNW 8.9 mph - N/A   Clear
9:45 AM 50.0 °F - 42.8 °F 76% 30.12 in - North 11.2 mph - N/A   Clear
10:15 AM 50.0 °F - 42.8 °F 76% 30.12 in - North 11.2 mph 22.4 mph N/A   Clear
10:45 AM 51.8 °F - 41.0 °F 67% 30.12 in 6.2 mi North 15.7 mph - N/A   Mostly Cloudy
11:15 AM 53.6 °F - 42.8 °F 67% 30.12 in 6.2 mi North 15.7 mph - N/A   Mostly Cloudy
11:20 AM 53.6 °F - 41.0 °F 62% 30.12 in 6.2 mi North 15.7 mph 26.8 mph N/A   Mostly Cloudy
11:45 AM - - - N/A% - 6.2 mi NNW 8.9 mph - N/A   Clear
12:15 PM 53.6 °F - 42.8 °F 67% 30.12 in 6.2 mi NNW 15.7 mph - N/A   Partly Cloudy
12:45 PM 53.6 °F - 41.0 °F 62% 30.12 in 6.2 mi NNW 15.7 mph 26.8 mph N/A   Partly Cloudy
1:15 PM 53.6 °F - 39.2 °F 58% 30.12 in 6.2 mi NNW 11.2 mph - N/A   Partly Cloudy
1:45 PM 53.6 °F - 37.4 °F 54% 30.12 in 6.2 mi NNW 13.4 mph - N/A   Partly Cloudy
2:15 PM 51.8 °F - 39.2 °F 62% 30.12 in 6.2 mi North 13.4 mph - N/A   Partly Cloudy
2:45 PM - - - N/A% - 6.2 mi NNW 11.2 mph - N/A   Scattered Clouds
3:15 PM 51.8 °F - 39.2 °F 62% 30.12 in - North 6.7 mph - N/A   Clear
3:45 PM 50.0 °F - 39.2 °F 66% 30.12 in - North 6.7 mph - N/A   Clear
4:15 PM 48.2 °F - 39.2 °F 71% 30.12 in - NW 2.2 mph - N/A   Clear
4:45 PM 44.6 °F - 39.2 °F 81% 30.12 in - NW 2.2 mph - N/A   Clear
5:15 PM 42.8 °F - 39.2 °F 87% 30.15 in - SE 2.2 mph - N/A   Clear
5:45 PM - - - N/A% - - Variable 4.5 mph - N/A   Clear
6:15 PM 39.2 °F - 37.4 °F 93% 30.15 in - SSE 2.2 mph - N/A   Clear
6:45 PM 39.2 °F - 37.4 °F 93% 30.15 in - South 2.2 mph - N/A   Clear
7:15 PM 37.4 °F 33.9 °F 35.6 °F 93% 30.15 in - SE 4.5 mph - N/A   Clear
7:45 PM 37.4 °F 33.9 °F 35.6 °F 93% 30.12 in - SSE 4.5 mph - N/A   Clear
8:15 PM 35.6 °F 31.8 °F 35.6 °F 100% 30.15 in - SE 4.5 mph - N/A   Clear
8:45 PM - - - N/A% - 3.1 mi Variable 4.5 mph - N/A   Mist
9:15 PM 33.8 °F - 33.8 °F 100% 30.15 in 5.0 mi SSE 2.2 mph - N/A   Clear
9:45 PM 33.8 °F 29.7 °F 32.0 °F 93% 30.15 in 3.7 mi SE 4.5 mph - N/A   Clear
10:15 PM 33.8 °F - 33.8 °F 100% 30.15 in 3.7 mi SE 2.2 mph - N/A   Clear
10:45 PM 33.8 °F 29.7 °F 33.8 °F 100% 30.15 in 3.7 mi SE 4.5 mph - N/A   Clear
11:15 PM 33.8 °F - 33.8 °F 100% 30.15 in 3.7 mi South 2.2 mph - N/A   Clear
11:45 PM - - - N/A% - 3.1 mi North - - N/A   Mist